www.pogodaiklimat.ru

Погода и климат >> Архив погоды >> Венгрия >> Bekescsaba


ПОГОДА в Bekescsaba

  • Прогноз погоды в Bekescsaba
  • Монитор погоды в Bekescsaba
  • Климат города

АРХИВ ПОГОДЫ в Bekescsaba

Время (UTC), дата Ветер
(напр.,м/с)
 
Видим.   Явления Облачность Т
(С)
Тd
(С)
f
(%)
Тe
(С)
Тes
(С)
Комфортность P
(гПа)
Po
(гПа)
Тmin
(С)
Tmax
(С)
R
(мм)
R24
(мм)
S
(см)
07 11.08 ЮВ 2 н/о н/о +26.0 +16.0 54 +29 +29 душно 1021.1 1010.9
08 11.08 В 2 н/о н/о +27.1 +15.2 48 +30 +30 душно 1021.0 1010.8
09 11.08 Ю 2 30 км 8/0
[Ac lent Cs]
+29.3 +14.3 40 +31 +42 жарко 1020.2 1010.1
10 11.08 З 2 н/о н/о +29.9 +12.3 34 +31 +31 жарко 1019.7 1009.6
11 11.08 Ю 1 30 км 9/1 2000 м
[Cu med, cong Ac cast Cs]
+30.8 +12.7 33 +32 +41 жарко 1019.5 1009.4
12 11.08 В 1 30 км 9/1 2000 м
[Cu med, cong Ac cast Cs]
+31.4 +12.2 31 +32 +40 жарко 1018.9 1008.9
13 11.08 З 2 35 км 9/1 2000 м
[Cu med, cong Ac lent Cs]
+31.9 +13.6 33 +33 +39 жарко 1018.5 1008.5
14 11.08 СЗ 3 н/о н/о +30.4 +13.7 36 +32 +32 жарко 1018.3 1008.2
15 11.08 З 3 35 км 9/1 1500 м
[Cu med, cong Ac lent Cs]
+29.4 +14.0 39 +31 +33 жарко 1018.3 1008.2
16 11.08 СЗ 4
{7}
н/о н/о +29.2 +14.2 40 +31 +31 жарко 1018.1 1008.0
17 11.08 СЗ 2 н/о н/о +29.4 +14.4 40 +31 +31 жарко 1017.9 1007.8
18 11.08 штиль 0 30 км 5/0
[Ac lent Ci sp]
+26.1 +15.8 53 +29 +29 жарко 1018.1 1007.9 +32.2
19 11.08 штиль 0 н/о н/о +23.2 +16.5 66 +28 +28 душно 1018.5 1008.2
20 11.08 штиль 0 н/о н/о +21.3 +16.1 72 +25 +25 комфорт 1018.9 1008.5
21 11.08 З 1 н/о н/о +19.4 +15.5 78 +22 +22 комфорт 1019.0 1008.6
22 11.08 штиль 0 н/о н/о +19.3 +16.3 83 +21 +21 комфорт 1019.3 1008.9
23 11.08 С 1 н/о н/о +21.3 +16.1 72 +25 +25 комфорт 1019.4 1009.0
00 12.08 штиль 0 н/о н/о +18.7 +15.2 80 +20 +20 1019.4 1008.9
01 12.08 штиль 0 н/о н/о +18.7 +15.8 83 +20 +20 1019.3 1008.8
02 12.08 СЗ 1 н/о н/о +17.5 +15.0 85 +19 +19 1018.9 1008.4
03 12.08 штиль 0 20 км 3/0
[Ac lent Ci sp]
+18.4 +16.4 88 +19 +19 1018.9 1008.4
04 12.08 СЗ 1 15 км 4/0
[Ac lent Ci sp]
+17.4 +16.4 94 +18 +19 1019.1 1008.6
05 12.08 штиль 0 18 км 3/0
[Ac cast Ci sp]
+19.1 +17.4 90 +21 +22 комфорт 1019.4 1008.9
06 12.08 С 1 22 км 3/0
[Ac cast Ci sp]
+22.2 +17.3 74 +27 +31 душно 1019.2 1008.9 +16.9 0
07 12.08 С 1 н/о н/о +24.8 +18.0 66 +29 +29 душно 1019.2 1008.9
08 12.08 С 1 н/о н/о +26.6 +18.2 60 +31 +31 душно 1019.1 1008.9
09 12.08 Ю 1 27 км 1/0
[Ci sp]
+28.1 +17.6 53 +32 +48 душно 1019.2 1009.1
10 12.08 ЮЗ 2 н/о н/о +29.0 +16.6 47 +32 +32 душно 1018.9 1008.8
11 12.08 З 2 30 км 1/1 1500 м
[Cu med, cong Ci sp]
+29.9 +17.4 47 +34 +48 очень
душно
1018.6 1008.5
12 12.08 З 3 30 км 3/3 1500 м
[Cu med, cong Ci sp]
+30.4 +16.1 42 +33 +42 душно 1018.1 1008.0
13 12.08 З 3 30 км 3/3 2000 м
[Cu med, cong]
+31.6 +15.1 37 +34 +40 душно 1017.4 1007.4
14 12.08 СЗ 3 н/о н/о +31.5 +13.7 34 +33 +33 жарко 1016.9 1006.9
15 12.08 СЗ 2 30 км 3/3 2000 м
[Cu med, cong Ci ing]
+31.7 +13.9 34 +33 +36 жарко 1016.5 1006.5
16 12.08 С 2 н/о н/о +31.9 +13.2 32 +33 +33 жарко 1016.0 1006.0
17 12.08 ЮВ 3 н/о н/о +29.1 +16.0 45 +32 +32 душно 1015.8 1005.7
18 12.08 ЮВ 2 27 км 3/1 2000 м
[Sc diur, vesp Ac cuf Ci ing]
+26.6 +16.8 55 +30 +30 душно 1015.7 1005.5 +32.2 0
19 12.08 ЮВ 1 н/о н/о +24.6 +17.1 63 +28 +28 душно 1015.9 1005.7
20 12.08 Ю 2 н/о н/о +25.0 +16.4 59 +28 +28 жарко 1016.0 1005.8
21 12.08 Ю 3 н/о н/о +23.9 +15.7 60 +27 +27 жарко 1016.1 1005.8
22 12.08 Ю 3 н/о н/о +23.5 +16.3 64 +27 +27 душно 1015.9 1005.6
23 12.08 ЮВ 1 н/о н/о +21.0 +16.2 74 +26 +26 душно 1015.9 1005.6
00 13.08 В 2 н/о н/о +19.3 +16.2 82 +22 +22 комфорт 1015.6 1005.2
01 13.08 ЮВ 2 н/о н/о +19.4 +16.4 83 +22 +22 комфорт 1015.4 1005.0
02 13.08 ЮВ 2 н/о н/о +18.4 +16.2 87 +20 +20 1015.3 1004.9
03 13.08 В 1 15 км ясно +18.0 +16.5 91 +19 +19 1015.2 1004.8
04 13.08 ЮВ 2 15 км 1/0
[Ci sp]
+17.2 +16.1 93 +18 +18 1015.3 1004.8
05 13.08 ЮВ 1 18 км 1/0
[Ci sp]
+19.6 +17.4 87 +23 +25 комфорт 1015.3 1004.9
06 13.08 ЮВ 3 22 км 1/0
[Ci sp]
+22.6 +17.5 73 +28 +31 душно 1015.2 1004.9 +17.2 0
07 13.08 Ю 3 н/о н/о +26.0 +17.1 58 +30 +30 душно 1015.0 1004.8
08 13.08 Ю 3 н/о н/о +28.7 +16.9 49 +32 +32 душно 1014.8 1004.7
09 13.08 Ю 4 28 км 1/0
[Ci sp]
+30.4 +16.4 43 +34 +43 очень
душно
1014.5 1004.5
10 13.08 Ю 4
{7}
н/о н/о +30.4 +15.3 40 +33 +33 душно 1014.4 1004.4
11 13.08 Ю 4
{11}
30 км 1/1 2000 м
[Cu med, cong Ci sp]
+31.7 +15.2 37 +34 +43 душно 1013.9 1003.9
12 13.08 Ю 4
{9}
30 км 3/3 2000 м
[Cu med, cong]
+32.4 +14.1 33 +34 +40 очень
жарко
1013.2 1003.3
13 13.08 Ю 4 30 км 3/3 2000 м
[Cu med, cong]
+32.7 +13.9 32 +34 +39 очень
жарко
1012.7 1002.8
14 13.08 Ю 4
{8}
н/о н/о +33.0 +12.1 28 +33 +33 жарко 1012.2 1002.3
15 13.08 Ю 3
{7}
30 км 1/1
[Cu med, cong Ci ing]
+32.8 +10.8 26 +32 +36 жарко 1011.5 1001.6
16 13.08 Ю 4
{7}
н/о н/о +32.1 +10.8 27 +32 +32 жарко 1011.1 1001.2
17 13.08 Ю 2
{7}
н/о н/о +31.3 +11.2 29 +31 +31 жарко 1010.8 1000.8
18 13.08 Ю 2 28 км 1/0
[Ci sp]
+29.2 +11.7 34 +30 +30 жарко 1010.7 1000.7 +33.3
19 13.08 Ю 2 н/о н/о +26.8 +12.1 40 +28 +28 жарко 1011.0 1000.9
20 13.08 Ю 2 н/о н/о +25.2 +12.8 46 +27 +27 жарко 1011.3 1001.1
21 13.08 Ю 2 н/о н/о +23.4 +12.7 51 +26 +26 жарко 1011.6 1001.4
22 13.08 Ю 2 н/о н/о +22.0 +13.1 57 +25 +25 комфорт 1011.7 1001.4
23 13.08 Ю 2 н/о н/о +21.0 +13.7 63 +24 +24 комфорт 1012.1 1001.8
00 14.08 ЮВ 2 н/о н/о +20.8 +14.2 66 +24 +24 комфорт 1012.3 1002.0
01 14.08 ЮВ 2 н/о н/о +20.5 +15.1 71 +24 +24 комфорт 1012.0 1001.7
02 14.08 ЮВ 3 н/о н/о +19.8 +14.6 72 +22 +22 комфорт 1012.0 1001.6
03 14.08 ЮВ 3 18 км ясно +19.3 +14.6 74 +21 +21 комфорт 1011.7 1001.3
04 14.08 ЮВ 3 18 км 1/0
[Ac cast]
+19.3 +14.3 73 +21 +21 комфорт 1011.8 1001.4
05 14.08 ЮВ 2 20 км 1/0
[Ac cast]
+20.0 +14.8 72 +23 +24 комфорт 1012.0 1001.7
06 14.08 ЮВ 3 22 км 1/1 900 м
[Cb cap Ac cast Ci ing]
+22.7 +15.3 63 +27 +29 душно 1012.2 1001.9 +19.1
07 14.08 ЮЗ 3 н/о н/о +26.4 +15.8 52 +30 +30 душно 1012.7 1002.6
08 14.08 ЮЗ 4
{7}
н/о н/о +28.0 +13.9 42 +30 +30 жарко 1012.8 1002.7
09 14.08 Ю 5 25 км 5/3 1500 м
[Cu med, cong Ac cast]
+29.7 +13.5 37 +31 +35 жарко 1012.5 1002.5
10 14.08 Ю 4
{8}
н/о н/о +30.1 +13.8 37 +32 +32 жарко 1012.0 1002.0
11 14.08 Ю 4
{9}
30 км 3/1 2000 м
[Cu med, cong Ac lent]
+31.3 +14.0 35 +33 +41 жарко 1011.5 1001.5
12 14.08 Ю 5
{9}
30 км 3/1 2000 м
[Cu med, cong Ac lent]
+32.0 +14.6 35 +34 +39 душно 1010.9 1001.0
13 14.08 Ю 5
{10}
30 км 3/1 2000 м
[Cu med, cong Ac lent Ci sp]
+32.7 +14.3 33 +34 +39 очень
жарко
1010.4 1000.5
14 14.08 Ю 5
{9}
н/о н/о +33.0 +14.1 32 +34 +34 очень
жарко
1009.9 1000.0
15 14.08 Ю 5 35 км 1/1 2000 м
[Cu med, cong Ac lent Ci ing]
+32.6 +14.2 33 +34 +36 очень
жарко
1009.7 999.8
16 14.08 Ю 4
{8}
н/о н/о +31.2 +13.9 35 +33 +33 жарко 1009.4 999.5
17 14.08 Ю 2 н/о н/о +29.7 +15.1 41 +32 +32 душно 1009.7 999.7
18 14.08 ЮЗ 2 25 км гроза без осадков 8/5 1500 м
[Cb cap Ac cast Ci ing]
+26.8 +17.0 55 +31 +31 душно 1010.1 1000.0
19 14.08 З 7
{17}
н/о н/о +23.3 +17.5 70 +29 +29 душно 1011.7 1001.5
20 14.08 З 3
{8}
н/о н/о +22.8 +16.8 69 +28 +28 душно 1012.2 1002.0
21 14.08 С 2 н/о н/о +21.3 +17.1 77 +25 +25 комфорт 1012.1 1001.8
22 14.08 штиль 0 н/о н/о +20.8 +17.4 81 +24 +24 комфорт 1012.4 1002.1
23 14.08 Ю 2 н/о н/о +20.2 +17.0 82 +24 +24 комфорт 1013.0 1002.7
00 15.08 З 6
{8}
н/о н/о +20.3 +16.7 80 +23 +23 комфорт 1013.8 1003.4
01 15.08 СЗ 1 н/о н/о +19.0 +16.2 84 +22 +22 комфорт 1013.7 1003.3
02 15.08 СЗ 1 н/о н/о +17.1 +15.8 92 +18 +18 1013.4 1002.9
03 15.08 С 1 15 км 3/0
[Ac lent Ci sp]
+15.8 +14.7 93 +16 +16 1013.1 1002.6
04 15.08 Ю 1 12 км 5/0
[Ac lent Ci sp]
+16.9 +16.4 97 +18 +18 1013.6 1003.1
05 15.08 ЮВ 2 15 км 8/0
[Ac cast Ci sp]
+17.4 +16.3 93 +18 +18 1013.9 1003.4
06 15.08 Ю 1 18 км 9/0
[Ac cast]
+19.5 +17.1 86 +23 +24 комфорт 1014.4 1004.0 +15.1
07 15.08 ЮЗ 2 н/о н/о +21.2 +17.0 77 +25 +25 комфорт 1014.7 1004.4
08 15.08 З 2 н/о н/о +22.9 +17.4 71 +28 +28 душно 1015.0 1004.7
09 15.08 ЮЗ 1 25 км 6/0
[Ac cast Ci sp]
+24.8 +17.3 63 +29 +39 душно 1014.9 1004.7
10 15.08 З 1 н/о н/о +27.2 +17.4 55 +31 +31 душно 1014.6 1004.5
11 15.08 Ю 1 28 км 9/1 1500 м
[Cu med, cong Ac trans Ci sp]
+28.3 +16.2 48 +32 +41 душно 1014.6 1004.5
12 15.08 Ю 1
{7}
30 км 9/4 1500 м
[Cu med, cong Ac trans Ci sp]
+28.4 +16.3 48 +32 +37 душно 1014.3 1004.2
13 15.08 З 2 30 км 9/6 1500 м
[Cu med, cong Ac trans Ci sp]
+29.1 +15.6 44 +32 +35 душно 1014.1 1004.0
14 15.08 ЮЗ 3 н/о н/о +30.1 +16.2 43 +33 +33 душно 1013.4 1003.4
15 15.08 СЗ 4 30 км 9/5 1500 м
[Cu med, cong Ac trans Ci ing]
+29.5 +17.0 47 +33 +34 душно 1013.4 1003.4
16 15.08 СЗ 5
{8}
н/о н/о +28.8 +17.7 51 +33 +33 очень
душно
1013.5 1003.4
17 15.08 С 4
{7}
н/о н/о +26.7 +16.9 55 +30 +30 душно 1013.7 1003.6
18 15.08 ЮЗ 2 20 км гроза, ливневой дождь 9/6 600 м
[Cb cap Ac cuf]
+22.4 +18.0 76 +27 +27 душно 1015.3 1005.0 2
19 15.08 С 3 н/о н/о +21.8 +19.9 89 +27 +27 душно 1015.5 1005.2
20 15.08 С 1 н/о н/о +20.7 +19.7 94 +26 +26 душно 1015.7 1005.3
21 15.08 СЗ 2 н/о н/о +20.3 +19.6 96 +25 +25 комфорт 1015.5 1005.1
22 15.08 С 2 н/о н/о +20.2 +19.7 97 +25 +25 комфорт 1015.8 1005.4
23 15.08 С 1 н/о н/о +20.0 +19.5 97 +25 +25 комфорт 1016.1 1005.7
00 16.08 С 2 н/о н/о +19.7 +18.7 94 +23 +23 комфорт 1015.9 1005.5 1
01 16.08 С 3 н/о н/о +19.1 +18.6 97 +21 +21 комфорт 1015.8 1005.4
02 16.08 С 2 н/о н/о +18.9 +18.2 96 +21 +21 комфорт 1015.7 1005.3
03 16.08 12 км 9/0
[Ac lent Ci sp]
+18.4 +17.9 97 1015.6 1005.2
04 16.08 СЗ 3 12 км 9/0
[Ac lent Ci sp]
+18.2 +17.7 97 +19 +19 1015.8 1005.4
05 16.08 С 2 15 км 9/0
[Ac lent Cs]
+18.9 +17.7 93 +21 +22 комфорт 1016.2 1005.8
06 16.08 С 2 15 км 10/0
[Ac cast Cs]
+19.6 +17.4 87 +23 +25 комфорт 1016.2 1005.8 +18.2 1 0
07 16.08 н/о н/о +21.6 +17.8 79 1016.1 1005.8
08 16.08 С 2 н/о н/о +23.5 +18.6 74 +28 +28 душно 1016.2 1005.9
09 16.08 С 2 22 км 9/0
[Ac cast Cs]
+25.2 +18.6 67 +30 +39 душно 1016.1 1005.9
10 16.08 С 3 н/о н/о +26.6 +18.5 61 +31 +31 душно 1016.0 1005.8
11 16.08 СВ 2
{7}
25 км 9/1 1080 м
[Cu med, cong Ci ing]
+27.0 +17.8 57 +31 +43 душно 1015.6 1005.5
12 16.08 С 3 25 км 9/1 1300 м
[Cu med, cong Ci ing]
+28.4 +17.6 52 +33 +41 очень
душно
1015.3 1005.2
13 16.08 С 1 27 км 9/4 1500 м
[Cu med, cong Ci sp]
+30.2 +17.6 47 +34 +41 очень
душно
1014.7 1004.7
14 16.08 С 2 н/о н/о +29.4 +17.6 49 +34 +34 очень
душно
1014.3 1004.3
15 16.08 С 3
{7}
30 км 8/3 1500 м
[Cu med, cong Ci ing]
+29.3 +17.2 48 +33 +35 душно 1013.9 1003.9
16 16.08 С 3
{9}
н/о н/о +28.6 +17.5 51 +33 +33 очень
душно
1014.3 1004.2
17 16.08 СВ 3 н/о н/о +27.4 +18.1 57 +32 +32 очень
душно
1014.3 1004.2
18 16.08 В 1 30 км 8/1 1500 м
[Sc diur, vesp Ac cuf Ci ing]
+25.6 +18.0 63 +30 +30 душно 1014.7 1004.5 +30.3
19 16.08 С 2 н/о н/о +22.3 +18.1 77 +27 +27 душно 1015.0 1004.7
20 16.08 С 2 н/о н/о +20.9 +17.7 82 +26 +26 душно 1015.1 1004.8
21 16.08 С 1 н/о н/о +20.0 +18.0 88 +24 +24 комфорт 1015.2 1004.8
22 16.08 н/о н/о +19.6 +18.1 91 1015.5 1005.1
23 16.08 В 1 н/о н/о +19.6 +17.9 90 +23 +23 комфорт 1015.5 1005.1
00 17.08 штиль 0 н/о н/о +18.3 +18.0 98 +19 +19 1015.4 1005.0
01 17.08 штиль 0 н/о н/о +17.4 +17.1 98 +17 +17 1015.5 1005.0
02 17.08 СЗ 1 н/о н/о +16.1 +15.8 98 +17 +17 1015.5 1005.0
03 17.08 штиль 0 12 км местами туман поземный 3/0
[Ac lent Ci sp]
+16.8 +16.5 98 +17 +17 1015.5 1005.0
04 17.08 СВ 1 12 км местами туман поземный 3/0
[Ac lent Ci sp]
+16.8 +16.6 99 +18 +18 1015.6 1005.1
05 17.08 штиль 0 12 км 3/0
[Ac lent Ci sp]
+17.4 +17.1 98 +17 +19 1016.0 1005.5
06 17.08 СВ 1 15 км 1/0
[Ac lent Ci sp]
+20.3 +18.4 89 +25 +29 комфорт 1016.1 1005.7 +16.0
07 17.08 штиль 0 н/о н/о +23.5 +18.8 75 +28 +28 душно 1016.1 1005.8
08 17.08 С 2 н/о н/о +25.9 +18.6 64 +31 +31 очень
душно
1016.1 1005.9
09 17.08 С 2 20 км 1/0
[Ac trans Ci sp]
+27.6 +17.8 55 +32 +44 очень
душно
1016.0 1005.9
10 17.08 СВ 2 н/о н/о +29.0 +16.9 48 +33 +33 очень
душно
1015.8 1005.7
11 17.08 СЗ 2 27 км 1/1 1500 м
[Cu med, cong Ci sp]
+29.7 +16.5 45 +33 +47 душно 1015.6 1005.5
12 17.08 СЗ 1 30 км 1/1 1500 м
[Cu med, cong Ci sp]
+30.8 +16.4 42 +34 +48 очень
душно
1015.1 1005.1
13 17.08 З 3 30 км 1/1 1500 м
[Cu med, cong Ci sp]
+30.7 +14.8 38 +33 +41 душно 1014.7 1004.7
14 17.08 С 2 н/о н/о +31.1 +15.5 39 +34 +34 душно 1014.4 1004.4
15 17.08 С 2 35 км 1/1 1500 м
[Cu med, cong]
+30.7 +15.2 39 +33 +37 душно 1013.9 1003.9
16 17.08 С 2 н/о н/о +30.5 +14.6 38 +33 +33 душно 1013.8 1003.8
17 17.08 С 1 н/о н/о +29.5 +15.6 43 +32 +32 душно 1013.7 1003.7
18 17.08 штиль 0 30 км ясно +26.3 +16.0 53 +30 +30 душно 1014.4 1004.2 +31.4
19 17.08 штиль 0 н/о н/о +23.1 +17.1 69 +28 +28 душно 1015.1 1004.8
20 17.08 штиль 0 н/о н/о +21.4 +16.6 74 +25 +25 комфорт 1015.4 1005.1
21 17.08 С 1 н/о н/о +20.1 +16.7 81 +24 +24 комфорт 1015.6 1005.2
22 17.08 ЮЗ 2 н/о н/о +20.0 +16.6 81 +23 +23 комфорт 1015.9 1005.5
23 17.08 штиль 0 н/о н/о +19.1 +16.7 86 +21 +21 комфорт 1015.8 1005.4
00 18.08 штиль 0 н/о н/о +18.5 +16.5 88 +19 +19 1015.9 1005.5
01 18.08 СВ 1 н/о н/о +17.0 +15.7 92 +18 +18 1016.1 1005.6
02 18.08 СВ 1 н/о н/о +17.6 +16.5 93 +19 +19 1016.3 1005.8
03 18.08 В 1 15 км 1/0
[Ac lent]
+16.7 +15.9 95 +18 +18 1016.5 1006.0
04 18.08 ЮВ 1 15 км 3/0
[Ac lent]
+16.3 +15.8 97 +17 +17 1016.9 1006.4
05 18.08 ЮВ 1 15 км 1/0
[Ac lent]
+17.7 +16.6 93 +19 +20 1017.2 1006.7

 

Местоположение метеостанции Bekescsaba (Венгрия): широта 46.68 долгота 21.17 высота над уровнем моря 90 м.

В архиве по умолчанию представлена погода в Bekescsaba за последнюю неделю. Архивные данные за месяц целиком и за предыдущие месяцы, начиная с января 2011 года, Вы можете получить, выбрав интересующий диапазон дат из раскрывающегося списка и нажав кнопку "Ввод!".


*Определитесь, кто Вы:
робот инопланетянин человек

Внимание! Время в таблицах - всемирное. Для получения местного времени необходимо прибавить поправку, которая в Bekescsaba равна 1 ч.

Смотрите также архив погоды в соседних городах и на ближайших метеорологических станциях:

Погода в Chisineu-Cris (Румыния) (32 км)
Погода в Siria (Румыния) (60 км)
Погода в Arad (Румыния) (63 км)
Погода в Oradea (Румыния) (68 км)
Погода в Holod (Румыния) (73 км)
Погода в Dumbravita De Codru (Румыния) (77 км)
Погода в Sannicolaul Mare (Румыния) (80 км)
Погода в Szolnok (Венгрия) (87 км)
Погода в Debrecen (Венгрия) (95 км)
Погода в Szeged (Венгрия) (95 км)

Пояснения к столбцам:

Ветер - указаны скорость ветра в м/с - средняя за 10 мин, порывы в срок и между сроками (в фигурных скобках) и направление, откуда дует ветер: С - северный, СВ - северо-восточный, В - восточный, ЮВ - юго-восточный, Ю - южный, ЮЗ - юго-западный, З - западный, СЗ - северо-западный.
Видимость - горизонтальная дальность видимости в метрах или километрах. При видимости от 1 до 10 км при отсутствии осадков обычно наблюдается дымка, при ухудшении видимости до 1 км и менее - туман. В сухую погоду видимость может ухудшаться дымом, пылью или мглою.
Явления - указаны атмосферные явления, наблюдавшиеся в срок или в последний час перед сроком; фигурными скобками обозначены явления, наблюдавшиеся между сроками (за 1-3 часа до срока); квадратными скобками обозначены град или гололедные отложения с указанием их диаметра в мм.
Облачность - указаны через наклонную черту общая и нижняя облачность в баллах и высота нижней границы облаков в метрах; квадратными скобками обозначены формы облаков: Ci - перистые, Cs - перисто-слоистые, Cc - перисто-кучевые, Ac - высококучевые, As - высокослоистые, Sc - слоисто-кучевые, Ns - слоисто-дождевые, Cu - кучевые, Cb - кучево-дождевые. Подробнее классификацию облаков см. в Атласе облаков (PDF).
T - Температура воздуха - температура, измеренная на высоте 2 м над землей.
Td - Температура точки росы - температура, при понижении до которой содержащийся в воздухе водяной пар достигнет насыщения.
f - Относительная влажность воздуха - влажноcть воздуха, измеренная на высоте 2 м над землей.
Te - Эффективная температура - температура, которую ощущает одетый по сезону человек в тени. Характеристика душности погоды. При расчете учитывается влияние влажности воздуха и скорости ветра на теплоощущения человека.
Tes - Эффективная температура на солнце - температура, которую ощущает человек, с поправкой на солнечный нагрев. Характеристика знойности погоды. Зависит от высоты солнца над горизонтом, облачности и скорости ветра. Ночью, в пасмурную погоду, а также при ветре 12 м/с и более поправка равна нулю.
P - Атмосферное давление - приведенное к уровню моря атмосферное давление.
Po - Атмосферное давление - измеренное на уровне метеостанции атмосферное давление.
Tmin - Минимальная температура - минимум температуры воздуха на высоте 2 м над землей.
Tmax - Максимальная температура - максимум температуры воздуха на высоте 2 м над землей.
R - Количество осадков - Количество выпавших осадков за период времени, мм. При наведении курсора мыши на число - период времени, за который выпало указанное количество осадков.
R24 - Количество осадков - Количество выпавших осадков за 24 часа, мм.
S - Снежный покров - Высота снежного покрова, см. При наведении курсора мыши на число - состояние снежного покрова и степень покрытия местности в баллах.